Wind_Speed
32 32 33 34 36 37 35 33 33 32 32 31 32 32 33 33 33 36 36 34 31 29 30 31 31 30 30 30 29 29 28 27 26 25 24 23 22 21 19 18 16 15 14 13 12 11 10 9 8
34 35 36 37 39 39 38 37 37 36 36 35 35 36 36 35 36 38 38 36 34 32 32 33 33 32 32 32 31 31 31 30 29 27 26 25 24 23 22 20 18 17 16 14 13 12 11 10 9
37 38 39 40 41 40 40 40 40 40 40 40 40 40 40 39 39 41 41 39 37 35 35 35 35 35 34 34 33 33 33 32 31 30 28 27 26 25 24 22 21 19 18 16 15 14 13 12 11
39 40 42 43 43 42 43 43 43 44 44 44 44 44 44 43 42 43 44 43 40 38 38 38 38 37 37 36 35 35 35 34 33 32 31 30 29 27 26 24 23 21 20 18 17 16 15 14 13
42 43 45 45 45 45 46 46 46 47 47 48 48 48 47 46 46 47 47 46 43 42 41 41 40 40 39 39 38 37 37 36 35 34 33 32 31 29 28 26 25 23 22 20 19 17 16 15 14
43 45 46 46 46 46 48 48 49 50 50 51 52 52 50 49 49 49 49 48 47 46 44 44 44 43 42 42 41 40 39 39 38 37 35 34 33 32 30 28 27 25 23 22 21 19 18 17 16
44 45 46 47 48 48 49 50 51 52 52 53 55 56 54 53 52 53 53 52 50 49 48 47 47 46 45 44 43 43 42 41 40 39 38 37 35 34 32 30 29 27 25 24 22 21 20 19 18
45 47 47 48 50 50 50 51 52 54 55 55 57 58 58 57 57 56 56 55 54 53 51 50 49 49 48 47 46 45 45 44 43 41 40 39 37 36 34 32 31 29 27 25 24 23 22 21 19
46 48 49 49 52 52 51 53 54 56 58 58 59 60 60 59 60 59 58 58 57 56 54 53 52 52 51 50 49 48 48 47 46 44 43 41 40 38 36 34 33 31 29 27 26 25 23 22 21
46 49 50 50 52 53 52 53 55 58 59 60 60 62 62 62 62 62 61 60 59 58 58 56 55 54 54 53 52 51 50 49 48 46 45 44 42 40 38 36 34 33 31 29 28 27 25 24 23
47 49 50 50 51 53 54 54 56 58 59 59 60 62 63 64 64 64 64 63 62 61 60 59 58 57 57 56 55 54 53 52 50 48 47 45 44 42 40 38 36 35 33 31 29 29 27 26 25
47 48 49 49 51 52 54 54 55 57 58 58 61 62 63 64 65 65 64 65 64 63 62 62 60 60 59 59 58 56 55 54 52 51 49 47 46 44 42 40 38 36 34 33 31 30 29 28 27
47 48 48 48 49 49 50 51 52 53 55 57 60 62 62 64 65 64 64 66 65 65 64 63 63 62 62 61 60 59 58 56 54 52 51 49 47 45 43 42 39 38 36 35 33 32 30 29 28
46 47 47 47 48 48 49 50 50 50 52 54 56 59 60 62 63 65 64 65 66 66 65 64 64 64 64 63 62 61 60 58 56 54 52 51 49 47 45 43 41 39 38 37 35 34 32 31 30
46 46 46 45 46 47 49 48 48 48 49 50 52 55 57 58 60 62 61 61 63 64 64 65 65 66 66 64 64 64 62 60 58 55 54 52 50 49 47 45 43 41 39 38 37 35 33 32 31
44 44 45 43 44 45 47 47 45 46 47 47 48 50 52 53 54 56 57 58 60 61 62 63 65 66 67 65 65 65 64 63 60 58 55 53 52 49 47 46 44 43 41 40 38 36 35 34 32
41 42 43 42 41 43 45 45 42 42 44 44 44 44 45 46 48 52 54 56 57 58 60 62 65 66 67 66 66 65 66 65 62 61 58 55 54 51 48 47 45 44 42 41 39 37 36 35 33
42 42 42 41 40 42 42 41 40 39 41 40 40 40 40 43 43 47 51 53 54 56 58 60 64 66 67 66 65 66 67 66 65 62 59 57 55 52 50 48 47 45 43 42 40 38 37 36 34
42 42 41 40 40 41 39 38 37 35 36 36 35 36 37 39 40 43 47 50 52 54 55 58 62 65 66 66 66 67 67 66 65 63 60 58 57 54 51 49 48 46 45 43 41 39 38 36 35
41 40 40 39 39 39 37 34 33 32 32 32 32 33 34 36 37 38 42 46 50 53 54 57 61 64 65 66 67 68 69 67 65 63 62 60 58 55 52 51 50 48 46 44 42 40 39 37 36
38 39 40 40 38 35 36 33 29 30 30 30 31 31 32 34 35 37 40 43 48 51 54 56 59 62 65 66 66 67 69 67 65 64 63 60 58 56 53 51 50 49 47 45 43 42 40 38 37
39 38 39 38 38 35 33 34 28 28 27 28 28 28 29 30 34 36 38 41 45 49 52 57 59 61 64 65 66 66 66 66 65 63 62 60 58 57 55 53 51 49 48 46 44 42 41 40 38
39 38 37 36 35 33 30 34 31 28 27 26 26 26 27 28 31 34 37 40 43 47 50 56 58 61 63 64 64 65 66 66 65 63 63 60 58 56 55 53 51 50 48 46 45 43 42 40 39
38 38 37 35 34 32 29 32 31 27 28 26 26 26 26 27 28 30 33 37 41 45 49 53 57 60 61 63 63 63 66 67 65 64 60 59 58 56 55 53 51 49 48 47 45 44 43 42 41
37 38 38 37 35 32 29 30 29 27 27 27 26 26 26 26 27 28 30 34 39 44 48 52 56 59 61 62 61 62 64 64 63 62 59 57 57 56 53 52 51 49 48 47 46 44 43 42 41
36 36 36 36 35 32 29 28 27 26 26 27 26 25 25 26 27 26 27 32 38 43 47 51 54 58 60 61 61 60 63 63 63 61 58 57 56 54 51 49 50 50 49 47 45 44 43 42 41
36 34 34 35 35 34 31 29 27 25 26 26 25 25 24 25 26 25 27 31 36 41 46 50 53 58 60 60 58 59 60 62 63 60 57 55 53 53 52 50 49 48 48 46 45 43 43 42 42
35 34 33 33 34 35 32 30 27 26 26 26 26 24 25 25 26 25 26 30 33 38 44 50 54 56 59 59 58 59 60 61 62 62 58 55 52 50 50 49 48 48 47 47 45 44 42 42 41
35 34 33 34 33 34 34 31 28 27 26 26 26 25 24 24 26 26 28 30 32 36 42 48 54 55 58 58 57 58 59 60 61 60 58 54 52 51 51 50 48 46 45 45 44 43 42 41 40
36 34 34 34 34 33 34 31 27 27 27 26 25 25 24 24 25 26 28 29 32 36 41 47 51 54 55 57 56 57 59 58 59 60 57 54 51 50 49 49 47 45 44 43 43 42 42 41 40
Wind_Direction
278 277 275 273 271 271 272 274 273 271 269 267 264 261 259 257 257 257 255 254 251 246 243 241 240 238 237 237 236 234 234 234 233 233 233 232 233 234 236 239 241 242 245 247 246 245 247 251 257
278 277 275 273 272 272 273 273 271 269 268 266 262 260 258 256 256 257 256 253 251 247 244 242 241 239 237 237 236 235 235 234 234 233 233 233 233 235 237 240 242 242 244 247 246 245 246 249 255
278 277 276 274 274 275 275 274 272 268 266 264 262 260 258 256 255 255 255 253 251 247 244 243 242 240 238 237 236 235 235 235 234 234 234 234 234 235 237 240 242 242 243 246 246 246 246 249 254
279 277 275 274 275 276 274 272 270 269 267 265 263 260 258 257 255 254 254 253 251 247 244 243 243 241 239 237 235 235 235 235 235 234 234 235 236 236 237 239 241 241 242 244 245 246 247 249 254
279 277 276 276 276 275 273 271 269 267 266 266 264 262 259 257 255 253 253 252 251 248 244 242 242 241 239 238 236 235 235 235 235 235 235 236 237 237 238 238 240 241 242 243 244 246 248 250 254
280 278 277 277 276 273 271 269 268 267 266 264 263 262 259 258 255 253 252 251 249 247 245 241 241 240 239 238 237 235 235 235 235 235 235 236 237 237 238 238 238 240 242 243 244 246 248 251 254
281 279 279 277 275 272 271 270 268 267 265 264 263 262 259 257 255 253 251 249 248 247 245 241 240 239 238 237 237 236 235 235 235 235 235 235 236 237 238 238 238 239 241 242 244 246 248 251 254
282 280 279 277 275 273 271 269 268 266 264 263 263 261 259 257 255 253 251 249 247 246 244 242 239 238 238 237 236 236 235 235 235 235 235 235 235 236 237 237 238 239 240 242 243 246 249 251 255
283 281 281 279 277 275 273 270 268 265 263 262 262 262 260 258 256 253 250 248 247 245 244 242 239 237 237 237 236 235 235 234 234 235 234 235 235 236 237 237 238 239 240 242 243 246 249 251 255
285 283 283 281 279 277 274 271 268 266 264 263 261 260 259 256 255 253 251 248 246 245 243 241 239 237 235 235 235 235 234 234 234 234 235 235 235 235 236 237 237 238 240 241 244 246 249 251 254
288 287 285 282 281 278 275 272 269 268 265 263 260 259 257 254 252 252 251 248 245 243 242 240 238 236 235 234 233 233 234 233 233 233 234 235 235 235 236 236 237 238 240 241 244 246 248 250 253
292 289 287 284 282 279 276 274 271 268 268 264 261 258 257 254 252 251 251 249 245 242 240 239 236 235 234 233 232 232 232 232 232 233 233 234 235 235 236 236 237 238 239 241 243 246 248 250 253
294 292 288 286 284 281 279 276 274 270 268 266 264 260 258 254 251 250 249 248 245 241 239 237 235 233 232 231 230 230 230 231 231 232 232 233 234 235 235 235 236 238 239 241 243 246 248 250 253
296 293 290 288 286 284 282 279 278 274 270 268 266 264 260 256 251 248 248 247 244 241 238 236 233 231 229 228 227 228 228 229 229 230 231 232 233 234 235 235 236 238 239 241 243 245 247 250 253
297 295 291 289 287 287 285 282 280 278 275 272 269 265 261 257 252 248 247 245 242 239 236 234 231 228 226 225 225 226 226 227 228 228 230 231 232 233 234 234 235 237 239 241 242 244 247 250 252
301 299 296 294 292 291 288 286 284 282 279 275 271 267 261 256 251 246 243 241 239 236 234 231 228 226 224 223 223 224 224 225 226 227 228 230 231 232 232 234 235 237 239 241 242 244 247 249 252
305 304 301 298 296 294 292 290 287 285 282 277 272 269 262 255 251 246 243 240 238 234 231 229 225 223 222 221 221 222 223 223 224 226 227 228 230 232 233 234 234 236 239 241 243 245 247 249 252
308 306 304 302 300 296 295 293 290 287 282 278 273 269 264 256 251 246 242 238 235 231 228 226 222 220 220 219 219 221 221 221 223 225 226 227 229 232 232 233 234 236 238 241 242 244 246 249 252
312 309 307 305 304 301 299 297 295 290 285 280 276 270 266 259 253 247 241 237 234 229 226 223 219 218 218 217 218 218 219 220 222 224 225 227 229 230 232 234 234 236 238 241 243 244 246 249 252
314 312 309 309 308 304 301 300 297 292 287 283 279 273 266 258 254 249 242 236 231 227 223 220 217 215 216 216 217 218 219 220 221 224 225 227 228 230 232 233 234 236 238 240 242 244 246 249 251
316 315 313 313 311 306 302 300 298 294 290 285 279 274 266 259 254 250 244 238 231 225 221 218 215 214 214 215 216 217 218 218 219 221 224 226 228 229 231 233 234 236 238 240 242 243 245 248 251
320 317 316 315 313 311 307 304 300 297 292 285 279 273 266 260 254 249 245 240 231 224 219 216 214 214 213 215 215 216 217 218 219 222 225 226 228 229 231 233 235 236 237 239 241 243 245 248 250
320 320 319 318 314 310 307 303 304 300 294 287 279 274 267 262 257 249 245 241 233 224 218 216 214 214 214 214 215 217 217 218 219 221 223 225 227 229 231 232 233 234 236 239 240 242 244 247 250
321 321 320 318 315 315 311 305 305 300 296 292 285 278 271 264 258 248 244 240 233 223 218 216 214 213 213 213 215 217 216 217 219 220 221 224 227 229 230 231 233 234 236 238 241 242 244 247 250
321 322 321 320 318 318 313 307 306 299 297 294 291 282 272 266 259 248 242 238 231 224 219 215 213 213 213 214 214 215 215 215 217 219 221 223 225 227 229 231 232 234 236 238 241 243 244 247 250
322 321 321 319 317 315 311 308 306 298 295 293 290 285 276 268 261 251 243 238 230 225 218 215 213 212 213 214 216 216 216 216 217 219 220 222 223 225 228 231 233 235 235 237 241 243 244 247 250
319 318 318 315 314 312 310 307 299 295 291 288 285 283 276 269 261 254 244 236 231 226 219 215 214 213 212 213 215 217 217 217 218 218 219 222 223 224 228 232 233 234 235 237 240 243 245 247 249
317 317 315 314 313 311 310 308 305 295 293 287 283 280 275 267 259 253 246 238 232 227 221 216 214 213 212 213 215 216 217 218 219 219 220 222 222 224 227 230 232 234 235 238 239 242 245 247 249
316 314 312 309 308 307 309 311 306 299 293 289 284 279 275 266 260 252 244 237 232 227 221 216 213 213 214 215 216 216 218 219 218 218 220 222 224 227 228 230 232 235 236 238 239 242 245 247 248
313 312 309 307 305 303 303 309 305 299 292 287 282 279 273 266 260 254 245 237 231 226 220 217 215 215 215 216 217 218 219 219 220 220 221 223 224 224 226 229 231 234 236 238 240 242 245 246 248
Height
5803 5803 5803 5803 5803 5802 5804 5808 5809 5811 5813 5814 5815 5817 5818 5820 5822 5824 5824 5826 5830 5833 5836 5837 5839 5842 5844 5846 5849 5851 5853 5855 5857 5859 5861 5862 5864 5866 5867 5868 5869 5870 5871 5872 5872 5873 5873 5873 5873
5796 5796 5796 5795 5794 5794 5798 5801 5802 5804 5805 5807 5808 5809 5811 5814 5815 5815 5816 5819 5823 5827 5830 5832 5834 5837 5839 5841 5844 5846 5849 5851 5853 5856 5858 5859 5861 5863 5864 5866 5867 5868 5869 5870 5871 5871 5872 5872 5872
5788 5787 5787 5786 5786 5788 5790 5793 5793 5794 5796 5798 5799 5801 5803 5806 5808 5807 5808 5812 5817 5821 5824 5826 5828 5831 5834 5836 5839 5841 5844 5847 5849 5852 5854 5856 5858 5859 5861 5863 5864 5866 5867 5868 5869 5870 5870 5870 5871
5780 5779 5778 5778 5778 5781 5782 5784 5784 5784 5785 5787 5789 5791 5794 5797 5799 5800 5800 5805 5809 5813 5817 5820 5822 5825 5828 5831 5833 5836 5839 5842 5844 5847 5849 5852 5854 5856 5858 5860 5862 5863 5864 5866 5867 5867 5868 5868 5869
5770 5769 5768 5767 5769 5771 5771 5772 5773 5774 5776 5777 5778 5780 5784 5787 5788 5790 5792 5796 5801 5805 5809 5812 5815 5818 5821 5824 5827 5830 5833 5836 5839 5842 5845 5847 5849 5852 5854 5856 5858 5860 5861 5863 5864 5865 5866 5866 5867
5759 5758 5757 5756 5758 5759 5760 5761 5761 5763 5764 5766 5766 5768 5773 5775 5777 5780 5783 5787 5791 5796 5800 5804 5808 5811 5814 5817 5821 5824 5827 5830 5833 5836 5839 5842 5845 5847 5850 5852 5854 5856 5858 5860 5861 5862 5863 5864 5864
5749 5746 5745 5745 5745 5747 5748 5748 5748 5750 5751 5753 5753 5755 5760 5762 5764 5767 5771 5776 5780 5785 5790 5795 5799 5802 5806 5810 5813 5817 5820 5824 5827 5830 5833 5836 5839 5842 5845 5848 5850 5852 5854 5856 5858 5859 5860 5861 5862
5736 5734 5732 5732 5731 5733 5734 5734 5735 5736 5737 5739 5739 5741 5745 5747 5750 5754 5758 5763 5768 5773 5779 5784 5789 5793 5798 5801 5805 5809 5813 5817 5820 5824 5827 5830 5833 5836 5840 5843 5845 5848 5850 5852 5854 5856 5857 5858 5859
5723 5721 5719 5719 5717 5719 5719 5719 5720 5720 5721 5724 5725 5726 5729 5731 5735 5740 5745 5750 5755 5761 5766 5773 5778 5783 5788 5792 5797 5801 5804 5808 5812 5816 5820 5823 5827 5831 5834 5838 5840 5843 5845 5848 5850 5852 5853 5855 5856
5711 5708 5707 5705 5703 5703 5703 5703 5703 5703 5705 5707 5708 5710 5712 5715 5719 5723 5729 5735 5741 5747 5753 5759 5765 5771 5777 5782 5787 5792 5796 5800 5804 5809 5813 5817 5821 5825 5829 5832 5835 5838 5841 5843 5846 5848 5849 5851 5852
5697 5695 5693 5690 5688 5686 5686 5686 5685 5684 5687 5690 5690 5692 5694 5698 5702 5706 5711 5718 5725 5732 5738 5745 5752 5759 5765 5771 5777 5782 5787 5791 5796 5801 5805 5810 5814 5818 5822 5826 5829 5833 5836 5839 5841 5843 5845 5847 5848
5685 5681 5678 5676 5673 5671 5669 5669 5668 5667 5669 5670 5670 5672 5675 5679 5684 5688 5694 5700 5707 5715 5723 5730 5737 5744 5752 5759 5765 5771 5777 5782 5787 5793 5797 5802 5807 5812 5816 5820 5824 5827 5831 5834 5836 5838 5840 5842 5843
5672 5668 5664 5661 5659 5656 5654 5653 5651 5652 5651 5650 5651 5653 5656 5660 5664 5669 5674 5680 5688 5697 5706 5714 5722 5729 5738 5745 5753 5759 5766 5772 5778 5784 5789 5794 5800 5805 5809 5813 5817 5821 5825 5828 5830 5833 5835 5837 5839
5659 5655 5651 5648 5644 5641 5639 5638 5635 5636 5634 5633 5633 5634 5636 5640 5644 5650 5655 5661 5668 5677 5687 5697 5705 5714 5723 5731 5740 5747 5755 5761 5768 5774 5780 5786 5791 5796 5801 5806 5811 5815 5818 5822 5825 5827 5830 5832 5834
5646 5642 5639 5636 5631 5628 5624 5623 5622 5620 5617 5616 5616 5616 5618 5621 5625 5630 5636 5642 5650 5659 5668 5679 5688 5698 5707 5717 5726 5735 5743 5751 5758 5764 5770 5777 5782 5788 5793 5799 5803 5808 5812 5815 5818 5821 5824 5826 5828
5635 5631 5627 5625 5620 5614 5610 5608 5609 5605 5602 5600 5600 5600 5601 5604 5608 5613 5619 5625 5632 5641 5651 5661 5671 5681 5692 5703 5713 5722 5730 5739 5747 5754 5760 5768 5774 5779 5785 5791 5796 5800 5805 5808 5812 5815 5818 5820 5822
5625 5620 5615 5613 5609 5603 5598 5595 5596 5592 5588 5586 5585 5585 5586 5589 5593 5597 5603 5609 5617 5625 5634 5644 5655 5666 5678 5689 5700 5709 5718 5727 5736 5743 5751 5758 5765 5770 5776 5782 5788 5793 5797 5801 5805 5809 5811 5814 5816
5616 5610 5606 5602 5597 5592 5588 5584 5583 5580 5576 5574 5573 5573 5574 5576 5580 5584 5588 5595 5602 5609 5618 5628 5639 5652 5664 5675 5686 5695 5704 5714 5724 5732 5740 5749 5755 5761 5768 5774 5780 5785 5790 5794 5798 5802 5805 5807 5810
5606 5601 5596 5593 5588 5582 5578 5575 5573 5570 5567 5565 5563 5563 5563 5565 5569 5572 5576 5581 5588 5596 5604 5614 5626 5638 5651 5662 5672 5682 5692 5702 5713 5722 5731 5739 5746 5752 5760 5766 5772 5777 5782 5786 5790 5794 5798 5801 5803
5599 5594 5589 5586 5580 5574 5570 5567 5565 5562 5559 5556 5554 5554 5555 5556 5559 5561 5565 5570 5576 5584 5593 5602 5613 5626 5638 5649 5660 5669 5680 5691 5702 5712 5720 5727 5735 5743 5750 5757 5763 5769 5774 5778 5783 5787 5791 5794 5797
5594 5587 5581 5577 5573 5568 5562 5561 5559 5556 5552 5549 5547 5546 5547 5548 5550 5553 5557 5561 5567 5574 5582 5591 5603 5615 5626 5637 5647 5658 5668 5679 5690 5700 5709 5717 5725 5734 5741 5747 5754 5760 5765 5770 5775 5779 5783 5787 5790
5588 5582 5575 5570 5564 5561 5557 5551 5554 5549 5546 5544 5542 5541 5541 5542 5543 5545 5548 5552 5558 5564 5572 5582 5593 5603 5614 5624 5634 5646 5657 5669 5680 5689 5699 5708 5717 5725 5732 5738 5745 5751 5757 5762 5767 5771 5776 5779 5782
5581 5575 5570 5564 5558 5555 5552 5545 5547 5543 5541 5538 5537 5536 5535 5536 5537 5539 5541 5545 5550 5556 5563 5573 5583 5594 5604 5614 5625 5636 5648 5659 5670 5679 5688 5698 5706 5714 5722 5728 5735 5742 5748 5753 5758 5763 5768 5771 5775
5574 5570 5565 5560 5554 5551 5547 5541 5540 5537 5535 5533 5531 5530 5529 5530 5530 5532 5534 5537 5542 5548 5556 5565 5575 5586 5595 5606 5616 5626 5638 5649 5659 5669 5678 5687 5696 5704 5713 5720 5727 5734 5740 5745 5750 5755 5759 5763 5767
5569 5563 5557 5552 5548 5546 5542 5537 5535 5532 5529 5528 5526 5525 5524 5524 5524 5525 5527 5530 5535 5541 5548 5557 5567 5577 5587 5597 5606 5617 5628 5638 5649 5660 5668 5677 5686 5695 5704 5711 5718 5725 5731 5737 5742 5747 5751 5755 5758
5564 5558 5553 5547 5542 5540 5538 5533 5531 5528 5525 5523 5522 5520 5519 5518 5519 5520 5522 5524 5529 5534 5541 5549 5558 5568 5578 5588 5598 5609 5620 5629 5639 5650 5660 5668 5677 5687 5695 5702 5709 5716 5723 5728 5734 5739 5743 5747 5750
5559 5554 5548 5542 5537 5533 5531 5529 5527 5524 5521 5519 5517 5515 5514 5513 5513 5515 5516 5519 5523 5529 5535 5542 5550 5559 5569 5580 5589 5600 5611 5621 5631 5641 5651 5660 5668 5677 5686 5694 5700 5707 5714 5719 5725 5730 5735 5738 5742
5555 5549 5544 5537 5531 5526 5525 5523 5521 5518 5516 5514 5511 5509 5508 5508 5508 5509 5511 5514 5518 5522 5528 5535 5544 5552 5563 5573 5582 5591 5602 5612 5623 5633 5642 5651 5661 5669 5677 5685 5692 5698 5705 5711 5716 5722 5726 5730 5734
5549 5544 5538 5532 5527 5522 5517 5520 5516 5512 5510 5508 5507 5505 5503 5503 5503 5504 5506 5509 5512 5517 5523 5529 5538 5547 5556 5566 5575 5584 5594 5604 5614 5624 5634 5643 5652 5661 5669 5676 5683 5689 5696 5702 5708 5713 5717 5721 5725
5542 5538 5533 5528 5523 5517 5512 5515 5512 5507 5504 5502 5501 5499 5498 5498 5498 5499 5501 5504 5508 5512 5517 5524 5532 5540 5549 5559 5568 5577 5586 5594 5605 5616 5626 5635 5644 5653 5660 5668 5675 5681 5687 5693 5699 5704 5709 5713 5717